Cali, Colombia

4:41 AM -05 on July 25, 2017 (GMT -0500)
Alfonso Bonilla Aragon International

Weather History for SKCL - November, 2012

Change the Weather History Date:

Monday, November 26, 2012

  Actual Average Record
Temperature  
Mean Temperature 76 °F -  
Max Temperature 85 °F 82 °F 89 °F (2002)
Min Temperature 68 °F 64 °F 64 °F (2004)
Cooling Degree Days 12    
Growing Degree Days 26 (Base 50)    
Moisture  
Dew Point 66 °F    
Average Humidity 74    
Maximum Humidity 94    
Minimum Humidity 42    
Precipitation  
Precipitation 0.00 in 0.09 in - ()
Sea Level Pressure  
Sea Level Pressure 29.92 in    
Wind  
Wind Speed 3 mph ()    
Max Wind Speed 18 mph    
Max Gust Speed -    
Visibility 6.2 miles    
Events      
Averages and records for this station are not official NWS values.
T = Trace of Precipitation, MM = Missing Value Source: Averaged Metar Reports

Daily Weather History Graph

Daily Weather History Graph

Search for Another Location

Airport or City:

Trip Planner

Search our weather history database for the weather conditions in past years. The results will help you decide how hot, cold, wet, or windy it might be!

Date:

Astronomy

Nov. 26, 2012 Rise Set
Actual Time 5:54 AM -05 5:51 PM -05
Civil Twilight 5:32 AM -05 6:13 PM -05
Nautical Twilight 5:06 AM -05 6:39 PM -05
Astronomical Twilight 4:41 AM -05 7:04 PM -05
Moon 4:31 PM -05 (11/26) 4:16 AM -05 (11/26)
Length of Visible Light 12h 40m
Length of Day
11h 56m
Waxing Gibbous, 97% of the Moon is Illuminated
Nov 26
Waxing Gibbous
Nov 28
Full
Dec 6
Last Quarter
Dec 13
New
Dec 20
First Quarter

Hourly Weather History & Observations

Time (-05) Temp. Heat Index Dew Point Humidity Pressure Visibility Wind Dir Wind Speed Gust Speed Precip Events Conditions
12:00 AM 71.6 °F - 68.0 °F 88% 30.01 in 6.2 mi Calm Calm - N/A   Mostly Cloudy
1:00 AM 71 °F - 68 °F 88%  in 6 mi Calm Calm - -   Haze
1:00 AM 71.6 °F - 68.0 °F 88% 29.98 in 6.2 mi Calm Calm - N/A   Mostly Cloudy
2:00 AM 71.6 °F - 68.0 °F 88% 29.95 in 6.2 mi East 3.5 mph - N/A   Mostly Cloudy
3:00 AM 71.6 °F - 68.0 °F 88% 29.94 in 6.2 mi Calm Calm - N/A   Mostly Cloudy
4:00 AM 70 °F - 68 °F 91%  in 6 mi Calm Calm - -   Haze
4:00 AM 69.8 °F - 68.0 °F 94% 29.95 in 6.2 mi Calm Calm - N/A   Scattered Clouds
5:00 AM 69.8 °F - 66.2 °F 88% 29.95 in 6.2 mi Calm Calm - N/A   Mostly Cloudy
5:30 AM 69.8 °F - 66.2 °F 88% 29.96 in 6.2 mi Calm Calm - N/A   Mostly Cloudy
6:00 AM 69.8 °F - 66.2 °F 88% 29.96 in 6.2 mi Calm Calm - N/A   Scattered Clouds
7:00 AM 70 °F - 67 °F 86%  in 6 mi Calm Calm - -   Haze
7:00 AM 69.8 °F - 66.2 °F 88% 29.99 in 6.2 mi Calm Calm - N/A   Mostly Cloudy
8:00 AM 71.6 °F - 68.0 °F 88% 29.92 in 6.2 mi Calm Calm - N/A   Scattered Clouds
9:00 AM 75.2 °F - 68.0 °F 78% 29.93 in 6.2 mi Calm Calm - N/A   Scattered Clouds
10:00 AM 76 °F - 67 °F 67%  in 6 mi Calm Calm - -   Haze
10:00 AM 77.0 °F - 68.0 °F 74% 30.03 in 6.2 mi Calm Calm - N/A   Scattered Clouds
11:00 AM 80.6 °F 83.2 °F 68.0 °F 65% 30.01 in 6.2 mi Variable 2.3 mph - N/A   Scattered Clouds
12:00 PM 84.2 °F 87.3 °F 68.0 °F 58% 29.87 in 6.2 mi SW 6.9 mph - N/A   Scattered Clouds
1:00 PM 84 °F - 64 °F 42%  in 6 mi East 2.2 mph - -   Haze
1:00 PM 84.2 °F 85.6 °F 64.4 °F 51% 29.93 in 6.2 mi East 3.5 mph - N/A   Scattered Clouds
2:00 PM 84.2 °F 85.6 °F 64.4 °F 51% 29.89 in 6.2 mi South 3.5 mph - N/A   Partly Cloudy
3:00 PM 80.6 °F 82.7 °F 66.2 °F 61% 29.88 in 6.2 mi North 18.4 mph - N/A   Scattered Clouds
4:00 PM 80 °F - 66 °F 54%  in 6 mi NW 15.7 mph - -   Haze
4:00 PM 78.8 °F - 66.2 °F 65% 29.87 in 6.2 mi North 16.1 mph - N/A   Mostly Cloudy
5:00 PM 78.8 °F - 66.2 °F 65% 29.87 in 6.2 mi NNW 11.5 mph - N/A   Mostly Cloudy
6:00 PM 75.2 °F - 66.2 °F 73% 29.87 in 6.2 mi North 9.2 mph - N/A   Scattered Clouds
7:00 PM 75 °F - 64 °F 61%  in 6 mi North 8.9 mph - -   Haze
7:00 PM 75.2 °F - 64.4 °F 69% 29.78 in 6.2 mi North 9.2 mph - N/A   Mostly Cloudy
8:00 PM 75.2 °F - 64.4 °F 69% 29.82 in 6.2 mi North 11.5 mph - N/A   Mostly Cloudy
9:00 PM 75.2 °F - 64.4 °F 69% 29.86 in 6.2 mi North 9.2 mph - N/A   Mostly Cloudy
10:00 PM 73 °F - 63 °F 64%  in 6 mi NE 4.5 mph - -   Haze
10:00 PM 73.4 °F - 62.6 °F 69% 29.88 in 6.2 mi NE 3.5 mph - N/A   Mostly Cloudy
11:00 PM 71.6 °F - 66.2 °F 83% 30.01 in 6.2 mi ENE 4.6 mph - N/A   Mostly Cloudy